Theta_e
316 317 317 317 316 316 315 315 316 317 317 317 318 318 318 318 319 319 318 319 319 319 319 319 319 320 321 322 324 329 343 350 354 354 353 351 350 349 348 347 348 348 347 347
316 316 316 316 316 315 315 316 317 317 317 317 318 319 319 319 319 318 318 319 319 319 319 319 319 319 321 323 324 326 334 346 352 352 352 351 349 348 348 347 347 347 347 347
317 316 315 315 315 315 316 317 317 317 318 318 320 320 320 319 319 319 319 319 318 319 319 320 320 319 320 323 325 327 329 338 350 351 351 351 350 348 348 348 347 347 347 347
317 317 316 316 316 316 318 317 316 317 319 321 320 321 320 319 319 319 319 319 319 319 319 320 320 320 319 321 322 325 329 332 341 350 349 350 349 349 347 347 347 347 346 345
318 316 316 317 317 316 317 318 318 319 320 321 320 321 320 319 319 318 318 318 318 318 319 319 321 320 321 321 321 322 329 332 337 346 349 349 349 347 346 346 347 348 347 346
317 317 316 317 317 316 318 318 319 320 321 323 320 320 320 318 317 317 318 318 319 321 321 321 320 320 321 321 321 320 326 332 336 342 347 349 349 347 345 347 347 347 345 346
318 318 317 317 318 319 319 321 322 322 321 322 317 316 317 317 318 319 319 320 320 321 321 321 321 322 320 321 322 323 322 329 337 341 344 346 348 349 349 348 348 345 344 345
319 320 318 319 319 319 320 321 321 323 319 317 315 315 316 317 318 319 320 320 320 321 321 321 321 321 320 320 320 324 322 324 332 343 346 346 348 349 349 348 345 344 340 342
320 320 318 319 318 318 320 320 319 319 317 317 315 314 316 319 319 318 319 319 319 320 320 320 321 320 320 320 320 322 325 323 326 336 344 346 350 350 347 346 347 344 343 341
317 318 316 317 317 318 316 317 319 318 321 317 313 313 314 317 318 317 317 317 318 318 318 319 319 318 319 320 320 320 324 325 325 331 336 340 341 339 335 335 335 329 331 331
316 316 316 315 315 315 318 317 317 318 320 320 317 314 316 315 315 318 317 315 317 318 318 317 317 316 317 317 318 320 320 324 325 327 330 330 329 327 328 328 327 328 329 330
316 317 318 315 314 314 314 314 316 321 318 319 319 318 315 316 317 318 316 316 317 318 317 316 316 315 315 315 316 318 320 319 322 323 325 326 327 326 326 326 326 326 328 327
317 316 319 316 315 315 315 314 314 316 317 320 320 317 314 314 315 316 317 317 318 317 316 316 316 315 314 314 314 315 316 318 318 318 321 322 325 327 327 326 326 326 325 325
317 317 317 317 314 315 315 314 314 316 319 317 316 315 314 315 316 317 318 318 317 316 316 316 315 314 313 313 313 313 313 315 316 316 317 319 322 324 326 327 326 325 324 323
315 319 317 315 314 314 314 314 313 313 314 316 315 315 314 315 317 317 317 317 316 316 314 314 313 313 312 312 311 312 312 312 313 315 316 316 317 320 323 325 326 325 324 323
315 315 314 315 314 314 314 312 312 312 313 314 314 315 314 316 316 316 316 316 315 314 313 313 313 312 313 312 311 311 311 312 312 312 314 315 316 315 317 321 325 326 324 323
314 315 316 316 312 312 313 315 314 314 314 314 316 316 316 316 315 315 314 314 313 313 312 312 312 312 312 311 311 311 311 311 311 312 311 312 313 315 315 316 320 323 325 324
313 314 314 314 313 315 316 315 316 316 316 316 316 316 315 315 314 312 311 312 312 311 311 310 310 310 309 308 309 310 309 310 311 311 312 311 311 312 313 314 315 319 322 325
312 312 313 315 316 316 315 317 317 317 317 315 316 315 314 313 312 312 311 310 310 309 309 310 308 307 307 307 307 307 308 308 308 310 311 311 311 311 312 313 314 316 320 323
312 313 315 315 320 319 318 316 314 315 318 315 314 314 313 312 313 312 309 308 308 308 307 306 305 304 305 303 305 305 305 306 307 308 309 311 311 311 311 314 314 315 318 321
316 315 316 316 320 317 317 315 314 319 320 315 312 312 310 310 310 309 308 308 306 305 304 303 303 303 303 302 302 303 302 301 301 304 306 306 307 310 311 312 314 315 316 317
319 320 320 318 319 318 314 315 317 316 314 312 311 309 308 308 308 308 308 306 305 304 303 302 302 301 300 301 301 301 300 300 300 299 300 303 306 308 310 312 313 313 316 317
320 319 320 319 319 316 315 315 313 312 312 310 309 308 307 307 308 307 306 304 303 302 301 300 299 299 298 299 299 300 299 299 299 299 300 299 302 303 307 310 312 312 314 316
316 315 317 316 315 314 314 312 311 311 310 308 307 307 307 308 305 305 304 303 302 301 300 299 298 298 299 299 298 299 300 300 300 299 299 300 301 302 303 306 310 311 312 314
313 314 315 315 313 313 312 312 311 309 308 308 307 307 307 307 305 303 302 301 299 299 298 298 298 299 298 298 299 301 301 299 299 299 300 300 300 302 303 303 305 309 310 311
311 312 316 316 314 313 313 311 309 308 308 307 307 307 306 306 304 302 300 299 298 297 297 298 297 297 298 299 301 301 299 300 300 300 299 300 300 301 303 304 305 304 308 310
Wind_Speed
9 9 10 10 8 7 6 8 11 9 10 13 15 16 16 16 16 16 15 14 14 16 13 15 15 14 16 20 18 21 23 27 27 27 28 29 31 29 29 29 27 27 26 26
8 12 7 4 6 9 11 12 12 10 9 10 16 18 18 19 19 17 16 16 18 18 17 16 19 19 15 18 20 22 27 27 29 29 29 28 25 25 25 25 25 27 28 29
13 6 6 6 9 10 11 12 11 13 14 14 19 18 17 13 11 13 16 18 18 19 20 18 17 19 18 18 18 21 26 28 32 33 28 25 22 22 22 26 28 30 29 28
8 9 9 8 8 9 11 5 8 13 14 14 14 17 17 16 15 15 15 16 15 18 19 20 18 18 22 20 18 18 23 26 30 30 28 29 29 26 28 28 27 26 30 30
5 6 8 9 8 4 12 5 12 15 17 19 19 16 15 16 15 14 15 14 18 18 15 14 14 18 19 20 21 20 19 24 28 30 33 31 30 27 20 23 24 26 23 25
14 3 7 8 2 6 6 13 17 17 14 14 15 11 7 11 16 17 17 17 14 14 12 11 13 15 18 20 20 20 20 22 25 31 33 32 30 29 24 24 24 22 22 21
14 13 11 6 13 9 10 12 11 11 11 12 7 11 12 14 10 15 10 10 10 9 10 11 13 15 19 21 22 19 21 21 23 29 32 34 33 28 24 22 25 22 21 22
8 10 4 3 9 11 4 7 7 9 10 15 18 7 2 11 2 5 5 8 10 11 12 13 12 15 19 22 24 21 18 22 22 25 28 30 29 26 27 23 22 25 24 23
4 6 4 1 2 4 6 9 6 10 15 13 10 10 9 6 3 4 9 9 10 11 13 14 15 17 20 19 21 20 19 19 21 22 24 25 23 26 26 24 24 21 20 18
4 11 5 5 4 4 8 4 5 6 4 7 8 15 10 4 8 10 10 14 13 13 13 13 13 16 18 19 21 20 16 16 17 17 20 21 22 23 21 20 20 18 17 16
5 6 4 4 10 9 7 9 6 4 4 4 8 7 6 11 13 7 12 15 14 13 14 13 13 16 18 19 19 19 17 11 9 12 17 18 19 19 19 18 18 17 15 15
6 5 9 11 3 5 9 10 10 8 9 8 12 17 6 10 10 10 20 16 15 13 13 13 14 18 17 18 20 17 18 11 14 8 10 10 10 13 15 17 18 18 18 17
6 6 8 9 8 7 8 9 9 11 10 14 12 13 6 11 17 16 16 14 13 15 15 15 15 14 17 18 18 17 14 16 9 11 9 10 11 13 16 18 18 19 19 18
5 12 11 10 12 3 9 11 12 14 13 16 17 23 19 17 18 18 16 13 15 15 17 16 15 16 18 20 19 19 18 15 11 10 8 7 12 16 17 18 19 20 20 21
6 14 15 16 16 15 16 17 17 20 20 20 21 23 21 20 15 15 16 18 19 20 19 20 19 17 19 22 23 22 21 19 18 16 11 8 6 10 15 19 21 21 22 23
7 11 13 15 15 16 20 21 21 20 20 22 22 23 20 12 15 19 19 19 20 22 23 22 21 20 20 24 26 27 26 24 23 21 19 21 15 10 9 16 21 22 24 26
10 7 9 13 8 10 14 16 11 11 12 14 16 15 17 19 19 19 19 22 25 26 24 24 23 22 26 32 34 29 32 30 29 27 25 27 19 18 15 10 18 24 25 26
13 9 8 9 10 13 3 1 6 8 10 12 15 16 17 17 20 24 24 24 23 24 25 24 23 28 33 37 37 33 34 33 35 33 31 27 20 21 17 19 16 21 24 25
13 12 7 8 8 14 7 4 4 8 13 15 10 13 19 24 26 26 17 20 24 25 25 24 34 37 39 34 36 36 34 33 34 35 36 32 28 26 25 26 22 20 22 23
13 13 9 6 5 4 6 4 5 9 9 5 11 18 23 23 17 17 23 26 26 24 29 30 35 40 33 37 32 32 36 32 29 33 33 33 34 32 33 31 34 33 28 25
7 8 13 12 7 7 5 3 6 5 6 17 19 21 22 19 16 28 27 26 24 26 32 38 36 34 36 35 35 29 24 30 34 35 36 40 37 34 35 33 31 31 29 27
9 8 6 8 5 7 2 5 5 10 14 17 19 21 21 23 26 26 26 27 26 26 27 33 28 30 34 32 29 28 27 34 32 33 35 36 33 35 33 34 33 32 30 30
4 5 3 5 1 1 2 5 6 7 15 15 19 21 21 24 26 27 26 28 25 24 23 32 29 31 33 31 29 25 31 34 32 30 32 35 35 38 35 31 37 33 32 31
4 3 3 3 3 1 8 2 5 12 15 17 18 20 21 24 26 27 25 23 23 21 21 31 29 18 20 27 29 29 32 32 32 31 30 29 30 33 36 26 32 32 33 31
3 2 5 8 8 6 2 4 11 14 15 18 18 19 22 24 25 25 23 23 21 21 29 29 21 18 22 29 29 28 15 21 20 21 26 27 26 26 28 32 23 28 33 34
7 7 6 5 5 6 10 11 13 14 16 17 19 20 21 22 24 24 21 19 19 21 29 23 24 24 25 26 25 18 17 14 15 17 23 22 22 21 25 24 26 38 31 35
Wind_Direction
207 227 219 221 226 290 259 259 261 269 272 274 274 279 282 283 283 279 276 273 271 273 270 281 279 282 287 285 270 247 230 221 213 213 213 213 215 214 215 215 213 214 216 219
201 231 256 238 223 230 241 251 258 269 260 272 280 279 285 279 274 276 274 276 278 277 278 273 274 275 275 277 272 258 238 226 214 212 214 218 216 215 218 215 215 214 215 215
251 87 95 180 198 227 233 257 277 288 303 276 265 281 277 269 250 251 266 273 273 272 277 280 284 275 280 281 277 267 249 234 221 217 210 212 216 218 217 219 216 215 215 213
245 231 235 239 240 236 265 277 270 286 290 290 325 290 282 283 283 282 284 290 278 287 287 283 287 278 284 285 288 276 260 242 229 220 214 205 205 204 215 217 220 216 214 217
119 174 208 241 265 252 276 326 289 294 288 293 283 279 290 293 286 301 324 319 308 300 312 319 311 309 303 294 288 284 268 249 231 221 219 210 215 216 216 220 218 211 210 210
270 262 276 290 335 267 306 275 277 275 271 269 276 278 295 310 332 317 321 305 321 352 320 322 326 324 319 313 301 286 268 251 234 222 217 218 215 218 211 212 207 205 204 207
241 239 240 250 259 210 249 269 275 271 240 263 0 302 282 320 358 325 319 330 329 329 335 338 354 343 342 340 330 303 275 254 237 224 219 219 218 214 214 210 214 201 204 206
282 273 184 148 255 285 266 301 276 286 286 306 315 265 270 339 204 339 338 335 341 338 332 318 320 329 331 340 339 330 290 267 245 228 220 218 216 213 216 214 216 210 211 210
257 247 115 179 222 266 160 246 357 293 271 261 257 250 264 97 204 329 333 334 338 331 330 338 334 324 323 329 339 341 320 280 258 234 229 217 208 208 210 208 207 205 207 203
251 270 172 132 220 208 267 66 242 222 281 284 297 305 291 309 353 329 329 336 329 327 326 327 330 339 334 333 332 350 339 303 266 246 231 220 206 198 194 190 191 193 194 194
257 244 168 206 211 257 181 221 219 280 243 281 298 293 53 312 299 295 297 329 315 321 321 324 328 331 327 334 338 333 353 331 288 241 228 216 201 196 190 189 191 193 190 193
230 274 265 265 75 297 277 268 240 226 239 228 281 284 327 346 334 289 295 317 315 313 315 317 321 324 329 329 332 342 333 357 333 226 223 219 213 198 192 191 187 192 189 187
192 240 253 217 196 206 239 218 243 231 257 260 271 271 296 278 311 312 312 307 307 307 310 315 313 315 318 324 324 328 336 335 348 323 273 231 215 206 199 211 193 194 196 188
270 254 253 263 316 163 239 240 238 239 244 266 261 279 290 297 307 319 312 314 302 302 303 305 308 311 314 313 310 311 310 309 309 313 322 286 250 224 215 215 213 202 198 195
273 252 250 262 272 278 268 261 259 249 256 261 278 287 297 298 319 305 300 296 302 304 307 312 309 309 306 305 303 296 294 295 292 286 282 284 289 263 243 230 223 213 204 200
226 264 268 270 266 263 269 267 262 262 265 267 274 280 278 293 300 303 312 310 303 300 299 299 301 301 303 301 299 293 288 283 280 275 274 267 261 252 250 239 223 219 211 206
246 247 240 267 268 287 269 264 263 274 273 274 273 296 319 303 318 311 305 303 300 298 298 304 307 304 305 300 295 285 284 277 272 264 253 252 249 248 246 241 238 224 215 210
248 239 258 266 285 258 69 2 325 299 291 281 282 299 320 308 307 310 307 296 301 310 311 309 304 298 294 296 283 278 278 274 274 261 255 253 240 249 246 246 236 234 223 214
225 244 253 247 257 280 266 87 5 339 302 296 311 312 316 314 308 295 305 318 311 301 298 296 299 295 294 287 293 285 275 272 262 266 256 244 243 228 222 228 234 235 222 215
213 229 235 259 246 265 61 75 339 313 278 50 327 315 316 318 304 297 315 309 304 299 296 297 289 290 282 288 286 288 279 262 262 267 261 252 239 238 235 216 208 217 217 214
179 195 218 227 249 275 72 7 302 270 344 329 326 318 318 307 295 302 306 304 303 301 299 298 294 287 285 284 276 267 274 271 266 263 258 251 254 255 238 231 222 213 207 204
184 186 203 228 246 257 76 299 315 338 317 317 320 314 311 305 303 303 302 306 308 305 304 301 296 295 295 289 283 271 266 266 260 248 252 253 243 238 240 230 222 218 212 205
244 227 226 228 255 116 307 305 318 317 315 320 321 314 311 308 307 313 311 310 308 307 306 305 302 301 297 291 278 268 264 262 258 248 239 238 238 234 236 235 213 212 213 215
220 214 243 273 124 309 305 320 265 331 320 322 316 314 312 311 317 311 312 310 311 311 312 309 304 299 300 304 296 283 275 265 249 243 238 232 232 219 222 236 218 210 214 211
359 271 275 261 268 315 151 319 335 322 324 322 320 314 320 321 316 315 311 314 313 314 313 311 310 307 305 306 300 300 312 295 274 260 236 222 218 216 215 224 230 220 222 215
241 280 270 277 3 312 307 332 324 326 328 324 322 323 322 323 320 317 314 315 316 315 318 321 320 315 314 313 319 327 325 315 302 288 215 203 198 205 202 204 216 230 229 218